Location: B?dimalle
(17.1788°N, 80.5377°E)
Time: 09:32:06
(UTC+00:00)

Tiros 1 despin weight - Pass Details

Date: 22 February 2026
Orbit: 556 x 593 km, 48.2° (Epoch: 10 March)

Event Time Altitude Azimuth Distance (km) Brightness Sun altitude
Rises 07:23:52 0° 268° (W) 2,762 ? 61.5°
Reaches altitude 10° 07:27:57 10° 306° (NW) 1,854 ? 61.2°
Maximum altitude 07:29:01 11° 321° (NW) 1,800 ? 61.1°
Drops below altitude 10° 07:30:05 10° 335° (NNW) 1,849 ? 61.0°
Sets 07:34:08 0° 14° (NNE) 2,735 ? 60.7°
